Overview Statistics Trail Chart Weather Telemetry Raw packets
 

This is the latest recevied weather packets stored in our database for station/object K3RUP-1. If no packets are shown the sender has not sent any weather packets the latest 10 day(s).

<< 36 37 38 39 40 41 42 >>
Time Temp. Humidity Pressure Rain* Wind** Luminosity Snow
1788447041 25° C 99% 1015.6 hPa 0 mm - 137 W/m² -
1788446740 25° C 99% 1015.7 hPa 0 mm - 157 W/m² -
1788446436 25° C 99% 1015.8 hPa 0 mm - 151 W/m² -
1788446132 25° C 99% 1015.6 hPa 0 mm - 163 W/m² -
1788445827 25° C 99% 1015.5 hPa 0 mm - 162 W/m² -
1788445523 25° C 99% 1015.7 hPa 0 mm - 212 W/m² -
1788445220 25° C 99% 1015.3 hPa 0 mm - 196 W/m² -
1788444915 24.44° C 99% 1015.2 hPa 0 mm - 201 W/m² -
1788444610 24.44° C 99% 1015.4 hPa 0 mm - 175 W/m² -
1788444306 24.44° C 99% 1015.4 hPa 0 mm - 192 W/m² -
1788444000 24.44° C 99% 1015.5 hPa 0 mm - 165 W/m² -
1788443696 23.89° C 99% 1015.4 hPa 0 mm - 124 W/m² -
1788443391 23.89° C 99% 1015.2 hPa 0 mm - 100 W/m² -
1788443090 23.89° C 99% 1015.3 hPa 0 mm - 75 W/m² -
1788442787 23.89° C 99% 1015.6 hPa 0 mm - 65 W/m² -
1788442484 24.44° C 99% 1015.6 hPa 0 mm - 67 W/m² -
1788442178 23.89° C 99% 1015.7 hPa 0 mm - 95 W/m² -
1788441874 24.44° C 99% 1015.9 hPa 0 mm - 95 W/m² -
1788441574 24.44° C 99% 1016.1 hPa 0 mm - 92 W/m² -
1788441269 23.89° C 99% 1016.1 hPa 0 mm - 81 W/m² -
1788440967 23.89° C 99% 1016.5 hPa 0 mm - 95 W/m² -
1788440663 23.89° C 99% 1016.5 hPa 0 mm - 92 W/m² -
1788440362 23.89° C 99% 1016.6 hPa 0 mm - 46 W/m² -
1788440062 23.89° C 99% 1016.7 hPa 0 mm - 57 W/m² -
1788439761 23.89° C 99% 1016.8 hPa 0 mm - 60 W/m² -

* Rain latest hour (hover to see other rain measurements)
** Current wind speed in m/s (hover to see current wind gust speed)